Home   Weather   Dallas   Past weeks
Flag for USA

Past Weather in Dallas, Texas, USA — Yesterday and Last 2 Weeks

Now
47 °F

Passing clouds.


Feels Like: 41 °F
Forecast: 37 / 58 °F
Wind: 15 mph from Northwest

Location: Dallas Love Field

Current Time: Dec 15, 2018 at 12:52:39 am

Latest Report: Dec 14, 2018 at 11:53 pm


Visibility: 10 mi

Pressure: 30.12 "Hg

Humidity: 54%

Dew Point: 31 °F

Location of DallasLocation

Past Weather in Dallas — Graph

°F

Dallas Temperature Yesterday

Maximum temperature yesterday: 51 °F (at 8:53 pm)
Minimum temperature yesterday: 44 °F (at 6:53 am)
Average temperature yesterday: 46 °F

High & Low Weather Summary for the Past Weeks

 TemperatureHumidityPressure
High73 °F (Nov 30, 8:53 pm)97% (Dec 6, 4:53 pm)30.47 "Hg (Dec 6, 4:53 pm)
Low32 °F (Dec 4, 5:53 am)24% (Dec 1, 3:53 pm)29.50 "Hg (Nov 30, 8:53 pm)
Average51 °F71%30.06 "Hg
* Reported Nov 29 10:53 pm — Dec 14 10:53 pm, Dallas. Weather by CustomWeather, © 2018

Note: Actual official high and low records may vary slightly from our data, if they occured in-between our weather recording intervals... More about our weather records

Advertising

Dallas Weather History for the Previous 24 Hours

Scroll right to see more
 ConditionsComfort  
Time TempWeatherWind HumidityBarometerVisibility
10:53 pm
Fri, Dec 14
49 °FPassing clouds.15 mph59%30.11 "Hg10 mi
9:53 pm51 °FPassing clouds.12 mph66%30.08 "Hg10 mi
8:53 pm51 °FOvercast.20 mph71%30.09 "Hg10 mi
7:53 pm49 °FMostly cloudy.16 mph80%30.09 "Hg10 mi
6:53 pm48 °FMostly cloudy.17 mph83%30.08 "Hg10 mi
5:53 pm48 °FMostly cloudy.16 mph83%30.05 "Hg10 mi
4:53 pm48 °FMostly cloudy.16 mph83%30.04 "Hg10 mi
3:53 pm47 °FMostly cloudy.16 mph86%30.02 "Hg10 mi
2:53 pm46 °FLight rain. Overcast.22 mph86%29.99 "Hg9 mi
1:53 pm45 °FLight rain. Overcast.17 mph86%29.97 "Hg9 mi
12:53 pm45 °FOvercast.23 mph86%29.96 "Hg9 mi
11:53 am45 °FLight rain. Overcast.14 mph90%29.98 "Hg9 mi
10:53 am45 °FLight rain. Overcast.14 mph86%29.99 "Hg9 mi
10:37 am45 °FLight rain. Overcast.20 mph86%29.99 "Hg10 mi
10:08 am44 °FLight rain. Overcast.17 mph89%29.99 "Hg9 mi
9:53 am44 °FLight rain. Fog.15 mph89%29.98 "Hg5 mi
8:53 am45 °FOvercast.16 mph82%29.96 "Hg10 mi
8:30 am45 °FOvercast.15 mph82%29.95 "Hg10 mi
7:53 am44 °FDrizzle. Fog.20 mph89%29.93 "Hg5 mi
7:02 am44 °FDrizzle. Fog.17 mph93%29.91 "Hg6 mi
6:53 am44 °FDrizzle. Fog.12 mph93%29.91 "Hg6 mi
5:53 am45 °FDrizzle. Fog.17 mph90%29.88 "Hg6 mi
5:22 am45 °FDrizzle. Fog.16 mph90%29.87 "Hg6 mi
4:53 am46 °FDrizzle. Overcast.13 mph89%29.86 "Hg8 mi
3:53 am46 °FOvercast.15 mph89%29.84 "Hg10 mi
2:53 am46 °FOvercast.15 mph89%29.83 "Hg10 mi
1:53 am46 °FOvercast.16 mph86%29.81 "Hg10 mi
12:53 am46 °FOvercast.12 mph89%29.81 "Hg10 mi
Weather by CustomWeather, © 2018

See weather overview